When you browse on this site, cookies collect data to enhance your experience and personalize the content and advertising you see.
Visit our Privacy Policy to learn more. By continuing to use the site, you agree to this use of cookies and data.
  • en Suisse
  • Liste des pays
  • À 7 jours
  • Température de l'eau
  • Carte satellitaire
  • Carte météo
  • Widgets météo
  • user-avatar
    Se connecter

    Météo par heure à Sulukta

    Ce jour, 21 Mars, Jeudi

    Heure Température Précipitation Vent Pression Humidité
    00:00 +7°C° 0 mm 1 m/s 648 mmHg 73%
    01:00 +6°C° 0 mm 1 m/s 648 mmHg 74%
    02:00 +6°C° 0 mm 1 m/s 648 mmHg 75%
    03:00 +6°C° 0 mm 1 m/s 648 mmHg 76%
    04:00 +6°C° 0 mm 1 m/s 648 mmHg 78%
    05:00 +5°C° 0 mm 1 m/s 648 mmHg 79%
    06:00 +6°C° 0 mm 1 m/s 648 mmHg 78%
    07:00 +6°C° 0 mm 1 m/s 649 mmHg 76%
    08:00 +7°C° 0 mm 1 m/s 649 mmHg 74%
    09:00 +7°C° 0 mm 1 m/s 649 mmHg 73%
    10:00 +7°C° 0 mm 2 m/s 649 mmHg 72%
    11:00 +8°C° 0 mm 2 m/s 649 mmHg 72%
    12:00 +8°C° 0.2 mm 2 m/s 649 mmHg 70%
    13:00 +9°C° 0.2 mm 2 m/s 649 mmHg 68%
    14:00 +9°C° 0.2 mm 2 m/s 649 mmHg 66%
    15:00 +9°C° 0.8 mm 2 m/s 649 mmHg 66%
    16:00 +9°C° 0.8 mm 2 m/s 649 mmHg 66%
    17:00 +9°C° 0.8 mm 2 m/s 649 mmHg 66%
    18:00 +10°C° 0.8 mm 1 m/s 649 mmHg 67%
    19:00 +9°C° 0.8 mm 1 m/s 649 mmHg 69%
    20:00 +8°C° 0.8 mm 1 m/s 650 mmHg 71%
    21:00 +8°C° 0.2 mm 1 m/s 650 mmHg 67%
    22:00 +7°C° 0.2 mm 2 m/s 650 mmHg 63%
    23:00 +6°C° 0.2 mm 2 m/s 650 mmHg 59%

    Demain, 22 Mars, Vendredi

    Heure Température Précipitation Vent Pression Humidité
    00:00 +6°C° 0 mm 2 m/s 649 mmHg 57%
    01:00 +6°C° 0 mm 2 m/s 649 mmHg 56%
    02:00 +5°C° 0 mm 2 m/s 649 mmHg 54%
    03:00 +6°C° 0 mm 2 m/s 649 mmHg 52%
    04:00 +5°C° 0 mm 3 m/s 649 mmHg 50%
    05:00 +5°C° 0 mm 3 m/s 649 mmHg 48%
    06:00 +5°C° 0 mm 3 m/s 649 mmHg 48%
    07:00 +7°C° 0 mm 2 m/s 649 mmHg 48%
    08:00 +7°C° 0 mm 2 m/s 649 mmHg 48%
    09:00 +8°C° 0 mm 2 m/s 649 mmHg 47%
    10:00 +9°C° 0 mm 2 m/s 649 mmHg 47%
    11:00 +10°C° 0 mm 2 m/s 649 mmHg 47%
    12:00 +10°C° 0 mm 2 m/s 649 mmHg 47%
    13:00 +12°C° 0 mm 2 m/s 649 mmHg 46%
    14:00 +12°C° 0 mm 2 m/s 649 mmHg 46%
    15:00 +12°C° 0 mm 2 m/s 649 mmHg 45%
    16:00 +12°C° 0 mm 2 m/s 649 mmHg 44%
    17:00 +13°C° 0 mm 2 m/s 649 mmHg 42%
    18:00 +10°C° 0 mm 2 m/s 648 mmHg 46%
    19:00 +9°C° 0 mm 2 m/s 648 mmHg 49%
    20:00 +9°C° 0 mm 1 m/s 648 mmHg 53%
    21:00 +8°C° 0 mm 2 m/s 648 mmHg 51%
    22:00 +8°C° 0 mm 2 m/s 648 mmHg 48%
    23:00 +8°C° 0 mm 2 m/s 647 mmHg 46%

    Après-demain, 23 Mars, Samedi

    Heure Température Précipitation Vent Pression Humidité
    00:00 +7°C° 0 mm 2 m/s 647 mmHg 47%
    01:00 +8°C° 0 mm 1 m/s 647 mmHg 49%
    02:00 +8°C° 0 mm 1 m/s 646 mmHg 50%
    03:00 +8°C° 0 mm 1 m/s 646 mmHg 52%
    04:00 +7°C° 0 mm 1 m/s 646 mmHg 55%
    05:00 +7°C° 0 mm 1 m/s 646 mmHg 57%
    06:00 +7°C° 0.1 mm 1 m/s 646 mmHg 59%
    07:00 +8°C° 0.1 mm 1 m/s 647 mmHg 61%
    08:00 +8°C° 0.1 mm 1 m/s 647 mmHg 62%
    09:00 +9°C° 0 mm 1 m/s 647 mmHg 60%
    10:00 +9°C° 0 mm 1 m/s 648 mmHg 58%
    11:00 +10°C° 0 mm 1 m/s 648 mmHg 56%
    12:00 +9°C° 0.1 mm 2 m/s 648 mmHg 57%
    13:00 +9°C° 0.1 mm 2 m/s 648 mmHg 58%
    14:00 +10°C° 0.1 mm 3 m/s 648 mmHg 58%
    15:00 +9°C° 0.2 mm 3 m/s 648 mmHg 63%
    16:00 +9°C° 0.2 mm 3 m/s 648 mmHg 68%
    17:00 +8°C° 0.2 mm 3 m/s 648 mmHg 73%
    18:00 +7°C° 0.2 mm 2 m/s 648 mmHg 78%
    19:00 +7°C° 0.2 mm 2 m/s 648 mmHg 82%
    20:00 +7°C° 0.2 mm 1 m/s 648 mmHg 87%
    21:00 +7°C° 0.4 mm 1 m/s 649 mmHg 86%
    22:00 +7°C° 0.4 mm 1 m/s 649 mmHg 85%
    23:00 +7°C° 0.4 mm 1 m/s 649 mmHg 83%

    24 Mars, Dimanche

    Heure Température Précipitation Vent Pression Humidité
    00:00 +7°C° 0 mm 1 m/s 649 mmHg 83%
    01:00 +6°C° 0 mm 1 m/s 649 mmHg 82%
    02:00 +6°C° 0 mm 1 m/s 648 mmHg 81%
    03:00 +5°C° 0 mm 1 m/s 648 mmHg 78%
    04:00 +5°C° 0 mm 1 m/s 648 mmHg 76%
    05:00 +5°C° 0 mm 1 m/s 648 mmHg 73%
    06:00 +6°C° 0 mm 1 m/s 649 mmHg 67%
    07:00 +7°C° 0 mm 1 m/s 649 mmHg 62%
    08:00 +6°C° 0 mm 2 m/s 649 mmHg 56%
    09:00 +8°C° 0 mm 2 m/s 650 mmHg 52%
    10:00 +9°C° 0 mm 2 m/s 650 mmHg 48%
    11:00 +11°C° 0 mm 3 m/s 650 mmHg 45%
    12:00 +11°C° 0 mm 3 m/s 650 mmHg 43%
    13:00 +12°C° 0 mm 3 m/s 649 mmHg 42%
    14:00 +13°C° 0 mm 3 m/s 649 mmHg 41%
    15:00 +13°C° 0 mm 3 m/s 649 mmHg 42%
    16:00 +12°C° 0 mm 3 m/s 649 mmHg 43%
    17:00 +12°C° 0 mm 3 m/s 649 mmHg 44%
    18:00 +11°C° 0 mm 3 m/s 649 mmHg 47%
    19:00 +10°C° 0 mm 3 m/s 649 mmHg 50%
    20:00 +9°C° 0 mm 2 m/s 649 mmHg 53%
    21:00 +9°C° 0 mm 3 m/s 648 mmHg 50%
    22:00 +8°C° 0 mm 3 m/s 648 mmHg 47%
    23:00 +8°C° 0 mm 3 m/s 648 mmHg 44%

    25 Mars, Lundi

    Heure Température Précipitation Vent Pression Humidité
    00:00 +7°C° 0 mm 3 m/s 648 mmHg 43%
    01:00 +7°C° 0 mm 3 m/s 648 mmHg 42%
    02:00 +6°C° 0 mm 4 m/s 648 mmHg 40%
    03:00 +6°C° 0 mm 4 m/s 648 mmHg 40%
    04:00 +6°C° 0 mm 4 m/s 648 mmHg 40%
    05:00 +6°C° 0 mm 4 m/s 647 mmHg 39%
    06:00 +7°C° 0 mm 4 m/s 648 mmHg 38%
    07:00 +8°C° 0 mm 4 m/s 648 mmHg 37%
    08:00 +8°C° 0 mm 4 m/s 648 mmHg 36%
    09:00 +10°C° 0 mm 5 m/s 648 mmHg 32%
    10:00 +13°C° 0 mm 5 m/s 648 mmHg 29%
    11:00 +15°C° 0 mm 5 m/s 648 mmHg 26%
    12:00 +15°C° 0 mm 6 m/s 648 mmHg 26%
    13:00 +16°C° 0 mm 6 m/s 648 mmHg 25%
    14:00 +17°C° 0 mm 6 m/s 647 mmHg 24%
    15:00 +17°C° 0 mm 6 m/s 647 mmHg 24%
    16:00 +16°C° 0 mm 6 m/s 646 mmHg 24%
    17:00 +16°C° 0 mm 6 m/s 646 mmHg 24%
    18:00 +15°C° 0 mm 5 m/s 646 mmHg 26%
    19:00 +13°C° 0 mm 5 m/s 646 mmHg 28%
    20:00 +12°C° 0 mm 4 m/s 645 mmHg 30%
    21:00 +12°C° 0 mm 4 m/s 645 mmHg 29%
    22:00 +12°C° 0 mm 4 m/s 645 mmHg 28%
    23:00 +11°C° 0 mm 4 m/s 645 mmHg 27%

    26 Mars, Mardi

    Heure Température Précipitation Vent Pression Humidité
    00:00 +11°C° 0 mm 4 m/s 646 mmHg 28%
    01:00 +11°C° 0 mm 4 m/s 646 mmHg 29%
    02:00 +11°C° 0 mm 3 m/s 646 mmHg 30%
    03:00 +11°C° 0 mm 3 m/s 647 mmHg 33%
    04:00 +10°C° 0 mm 3 m/s 647 mmHg 35%
    05:00 +10°C° 0 mm 2 m/s 647 mmHg 37%
    06:00 +10°C° 0 mm 3 m/s 648 mmHg 38%
    07:00 +11°C° 0 mm 3 m/s 648 mmHg 38%
    08:00 +11°C° 0 mm 3 m/s 649 mmHg 39%
    09:00 +13°C° 0 mm 3 m/s 649 mmHg 36%
    10:00 +14°C° 0 mm 3 m/s 650 mmHg 33%
    11:00 +16°C° 0 mm 3 m/s 651 mmHg 30%
    12:00 +15°C° 0 mm 4 m/s 651 mmHg 35%
    13:00 +15°C° 0 mm 4 m/s 651 mmHg 39%
    14:00 +15°C° 0 mm 5 m/s 651 mmHg 44%
    15:00 +14°C° 0 mm 4 m/s 651 mmHg 48%
    16:00 +14°C° 0 mm 4 m/s 651 mmHg 51%
    17:00 +13°C° 0 mm 3 m/s 651 mmHg 55%
    18:00 +14°C° 0 mm 2 m/s 650 mmHg 55%
    19:00 +13°C° 0 mm 2 m/s 650 mmHg 56%
    20:00 +12°C° 0 mm 2 m/s 650 mmHg 57%
    21:00 +12°C° 0 mm 2 m/s 649 mmHg 55%
    22:00 +12°C° 0 mm 2 m/s 649 mmHg 53%
    23:00 +12°C° 0 mm 2 m/s 648 mmHg 51%
    Voir plus